{"data":{"norad_id":69000,"epoch":"2026-05-25T04:00:03.998880Z","epoch_age_seconds":63790,"freshness":"FRESH","line1":"1 69000U 26100W   26145.16671295  .00045130  00000+0  44678-2 0  9992","line2":"2 69000  97.7396  43.0476 0002635 183.6414 344.6678 14.91668294  1846","mean_motion":14.91668294,"eccentricity":0.0002635,"inclination_deg":97.7396,"raan_deg":43.0476,"arg_perigee_deg":183.6414,"mean_anomaly_deg":344.6678,"bstar":0.0044678,"rev_number":184,"period_min":96.536207533013,"perigee_km":590.89647316109,"apogee_km":594.57012180786,"semimajor_km":6970.8702974845,"source":"CELESTRAK","updated_at":"2026-05-25T13:38:09.035399Z"}}